Back to catalog

BREEZE-M DEB

TANK

AliveHEO
NORAD 40507·DEBRIS·🇷🇺 Russia

Launched Mar 18, 2015 from Baikonur Cosmodrome

Loading…

Next Passes (next 24 hours)

TLE

FreshSource: Space-Track

Epoch: Sep 12, 2026, 12:59 UTC

1 40507U 15012C   26255.54152782  .00002771  00000-0  75572-3 0  9995
2 40507  49.4772  90.7898 5344987 350.3041   2.5262  5.02330618203705

Track BREEZE-M DEB in real time with AllMySat

Download on the App Store